SCP
0 -0 -0 -0 -0 -0 0 0 0 0 0 -0 0 0 0 0 0 0 0 0 0 0 0 0 0 0 0 0 0 0 0 0 0 0 0 0 0 0 0 0 0 0 0 0
0 -0 -0 -0 -0 -0 0 0 0 0 0 0 0 0 0 0 0 0 0 0 0 0 0 0 0 0 0 0 0 0 0 0 0 0 0 0 0 0 0 0 0 0 0 0
0 0 -0 -0 -0 -0 0 0 0 0 0 0 0 0 0 0 0 0 0 0 0 0 0 0 0 0 0 0 0 0 0 0 0 0 0 0 0 0 0 0 0 0 0 0
0 0 -0 -0 -0 -0 0 0 0 0 0 0 0 0 0 0 0 0 0 0 0 0 0 0 0 0 0 0 0 0 0 0 0 0 0 0 0 0 0 0 0 0 0 0
0 0 0 0 -0 -0 0 0 0 0 0 0 0 0 0 0 0 0 0 0 0 0 0 0 0 0 0 0 0 0 0 0 0 0 0 0 0 0 0 0 0 0 0 0
0 0 0 0 0 0 0 0 0 0 0 0 0 0 0 0 0 0 0 0 0 0 0 0 0 0 0 0 0 0 0 0 0 0 -0 0 0 0 0 0 0 0 0 0
0 0 0 0 0 0 0 0 0 0 0 0 0 0 0 0 0 0 0 0 0 0 0 0 0 0 0 0 0 0 0 0 0 0 0 0 0 0 0 0 0 0 0 0
0 0 0 0 0 0 0 0 0 0 0 0 0 0 0 0 0 0 0 0 0 0 0 0 0 0 0 0 0 0 0 0 0 0 0 0 0 0 0 0 0 0 0 0
0 0 0 0 0 0 0 0 0 0 0 0 0 0 0 0 0 0 0 0 0 0 0 0 0 0 0 0 0 0 0 0 0 0 0 0 0 0 0 0 0 0 0 0
0 0 0 0 0 0 0 0 0 0 0 0 0 0 0 0 0 0 0 0 0 0 -0 -0 -0 0 0 0 0 0 0 0 0 0 0 0 0 0 0 0 0 0 0 0
0 0 0 0 0 0 0 0 0 0 0 -0 0 0 0 0 0 0 0 -0 0 -0 -0 -0 0 -0 0 0 0 0 0 0 0 0 0 0 0 0 0 0 0 0 0 0
0 0 0 0 0 0 0 0 0 0 0 -0 0 -0 0 0 -0 0 0 0 -0 -0 0 0 0 -0 0 0 0 0 0 0 0 0 0 0 0 0 0 0 0 0 0 0
0 0 0 0 0 0 0 0 0 0 0 -0 -0 -0 -0 -0 -0 -0 -0 -0 -0 0 -0 -0 -0 0 0 0 0 0 0 0 0 0 0 0 0 0 0 0 0 0 0 0
0 0 0 0 0 0 0 0 0 0 0 0 -0 -0 0 0 -0 0 0 -0 0 -0 -0 0 -0 0 0 0 0 0 0 0 0 0 0 0 0 0 0 0 0 0 0 0
0 0 0 0 0 0 0 0 0 0 0 0 0 -0 -0 -0 -0 0 -0 0 -0 0 0 0 0 -0 0 0 0 0 0 0 0 0 0 0 0 0 0 0 0 0 0 0
0 0 0 0 0 0 0 0 0 0 0 0 0 0 0 0 -0 0 0 0 0 0 0 0 0 0 0 0 0 0 0 0 0 0 0 0 0 0 0 0 0 0 0 0
0 0 0 0 0 0 0 0 0 0 0 0 0 0 0 0 0 0 0 0 0 0 0 0 0 0 0 0 0 0 0 0 0 0 0 0 0 0 0 0 0 0 0 0
0 0 0 0 0 0 0 0 0 0 0 0 0 0 0 0 0 0 0 0 0 0 0 0 0 0 0 0 0 0 0 0 0 0 0 0 0 0 0 0 0 0 0 0
-0 0 0 0 0 0 0 0 0 0 0 0 0 0 0 0 0 0 0 0 0 0 0 0 0 0 0 0 0 0 0 0 0 0 0 0 0 0 0 0 0 0 0 0
0 0 0 0 0 0 0 0 0 0 0 0 0 0 0 0 0 0 0 0 0 0 0 0 0 0 0 0 0 0 0 0 0 0 0 0 0 0 0 0 0 0 0 0
0 0 0 0 0 0 0 0 0 0 0 0 0 0 0 0 0 0 0 0 0 0 0 0 0 0 0 0 0 0 0 0 0 0 0 0 0 0 0 0 0 0 0 0
0 0 0 0 0 0 0 0 0 0 0 0 0 0 0 0 0 0 0 0 0 0 0 0 0 0 0 0 0 0 0 0 0 0 0 0 0 0 0 0 0 0 0 -0
0 0 0 0 0 0 0 0 0 0 0 0 0 0 0 0 0 0 0 0 0 0 0 0 0 0 0 0 0 0 0 0 0 0 0 0 0 0 0 0 0 0 0 -0
0 0 0 0 0 0 0 0 0 0 0 0 0 0 0 0 0 0 0 0 0 0 0 0 0 0 0 0 0 0 0 0 0 0 0 0 0 0 0 0 0 0 -0 -0
0 0 0 0 0 0 0 0 0 0 0 0 0 0 0 0 0 0 0 0 0 0 0 0 0 0 0 0 0 0 0 0 0 0 0 0 0 0 0 -0 0 0 0 0
0 0 0 0 0 0 0 0 0 0 0 0 0 0 0 0 0 0 0 0 0 0 0 0 0 0 0 0 0 0 0 0 0 0 0 0 0 0 -0 -0 0 0 -0 0
0 0 0 0 0 0 0 0 0 0 0 0 0 0 0 0 0 0 0 0 0 0 0 0 0 0 0 0 0 0 0 0 0 0 0 0 0 -0 -0 -0 0 -0 0 0
Wind_Speed_500mb
42 44 48 50 50 42 10 5 8 9 2 22 7 6 5 4 9 6 7 12 16 14 6 15 9 8 20 6 10 13 14 12 20 34 13 7 15 9 12 14 22 21 22 10
39 43 45 46 46 47 37 16 10 7 4 10 10 8 6 3 6 3 9 9 4 3 15 10 10 4 14 6 6 18 17 11 19 22 12 8 9 24 20 17 17 29 24 7
40 42 43 41 37 34 27 14 6 5 6 7 17 1 5 7 1 3 10 14 13 14 17 12 13 12 8 7 13 9 5 14 24 23 29 28 21 23 21 16 17 29 20 15
39 40 41 40 33 25 18 7 8 9 3 7 9 8 5 12 6 5 7 9 14 13 15 17 12 6 18 18 9 8 4 22 29 32 34 29 32 24 19 21 31 22 24 29
39 42 41 39 32 17 10 15 12 5 2 7 13 7 4 11 6 10 4 11 4 12 8 13 16 10 11 10 10 17 16 23 28 34 34 34 23 21 18 19 21 27 19 13
39 41 40 35 29 18 9 13 9 10 10 10 14 6 5 2 7 5 9 13 9 13 18 15 11 8 6 12 16 20 20 21 23 31 33 26 19 14 11 18 22 22 18 11
39 39 36 30 24 14 10 12 9 15 4 12 9 5 4 2 6 6 6 13 15 11 8 12 13 17 12 13 4 10 18 19 19 19 23 21 12 16 18 13 11 10 20 15
37 35 30 24 18 9 2 10 6 11 7 9 11 9 3 8 7 3 7 12 8 7 15 15 18 18 18 23 12 3 8 18 12 6 11 4 6 10 10 10 8 10 18 21
35 31 27 21 15 7 4 7 3 6 18 13 11 12 5 15 10 12 8 3 6 10 22 12 14 16 15 9 10 9 13 13 10 14 10 6 6 5 3 18 5 20 23 25
30 28 23 19 12 6 5 5 3 2 16 10 5 7 14 7 10 11 3 5 12 7 15 18 16 12 6 8 7 8 3 8 10 5 7 11 5 14 11 9 7 16 21 26
26 25 20 16 10 5 10 6 5 3 11 10 2 5 7 5 8 11 11 10 10 13 10 8 5 9 1 8 11 10 10 7 7 9 6 4 13 5 11 6 6 15 19 19
23 23 20 13 8 6 10 6 6 6 8 11 4 5 4 2 8 14 2 6 5 17 7 6 5 7 8 5 3 2 3 11 9 8 7 7 12 16 11 9 14 15 15 15
20 20 19 10 8 9 16 11 4 2 9 17 12 12 8 2 1 4 14 10 10 2 11 19 9 6 10 6 3 11 7 5 9 6 4 9 10 12 13 14 14 13 12 12
18 18 19 8 8 11 16 17 2 1 6 12 11 6 12 11 6 5 3 7 8 11 13 20 11 8 0 3 3 12 7 12 10 12 10 10 9 12 11 13 13 12 13 11
16 17 19 5 11 13 17 18 4 4 6 12 8 3 10 6 12 13 8 3 7 14 11 12 10 14 8 17 6 10 7 13 8 3 12 13 14 12 10 9 10 9 9 12
14 16 12 6 17 18 21 7 5 7 3 9 5 5 7 10 13 15 12 8 8 10 9 9 9 3 8 7 5 11 12 11 9 12 12 18 20 15 11 10 9 9 11 14
12 13 6 19 25 29 3 5 7 15 7 8 8 10 10 13 16 17 15 10 11 10 10 9 19 8 11 12 12 16 12 11 16 20 22 18 14 15 12 11 12 14 15 14
9 5 17 23 28 19 8 10 1 19 7 8 8 4 9 21 18 18 16 13 12 13 13 4 15 16 11 7 17 13 13 18 18 9 7 16 18 18 14 11 12 13 16 13
9 28 26 21 12 6 10 6 8 15 3 10 9 10 7 17 22 17 11 11 10 11 13 16 5 10 9 1 17 17 19 21 17 15 15 17 15 14 11 8 10 13 18 12
38 29 4 5 9 6 6 3 7 10 13 11 16 16 5 16 18 16 10 13 11 9 15 7 9 18 19 8 2 20 23 17 21 18 14 10 9 8 7 6 9 16 18 11
9 5 4 2 14 10 7 3 7 11 8 15 22 26 17 16 14 15 13 3 7 7 8 7 11 10 21 18 17 18 21 22 16 10 7 5 6 7 10 10 16 21 16 11
8 7 11 11 7 6 7 8 10 10 9 11 17 23 28 12 13 11 6 8 7 9 13 7 8 14 23 19 24 23 24 23 17 15 12 9 10 12 13 18 22 22 16 10
8 3 8 4 7 2 10 14 7 7 14 9 11 12 27 7 20 8 7 8 11 7 9 9 5 23 19 20 24 29 26 22 21 18 16 14 15 15 19 24 26 21 14 10
2 5 1 8 9 9 11 11 10 4 3 11 14 20 22 22 20 13 10 12 4 11 12 15 20 27 23 26 30 33 30 24 20 18 16 15 15 19 25 28 25 19 14 10
1 4 7 12 18 12 10 13 17 12 12 20 17 23 26 10 5 8 10 9 12 13 11 17 29 29 28 32 33 31 28 23 19 18 16 15 19 24 29 28 23 17 13 10
2 7 9 13 14 21 13 17 22 18 18 20 20 6 7 15 8 11 14 11 12 10 19 26 28 33 32 34 32 29 24 21 19 17 17 18 22 26 30 27 21 16 11 8
10 11 18 19 17 20 19 14 8 10 13 16 11 10 13 10 10 11 7 17 4 25 15 18 27 36 36 35 32 28 25 22 20 19 19 20 23 28 29 27 21 14 9 3
Wind_Direction_500mb
356 357 359 359 359 8 39 316 269 7 285 248 261 308 57 359 291 269 264 279 293 298 9 291 297 349 53 48 350 333 51 305 297 307 32 292 289 302 352 323 315 320 290 308
355 357 358 0 1 3 5 331 313 328 249 272 207 88 168 296 293 16 305 274 270 310 287 294 248 25 63 30 19 14 12 321 313 311 164 356 299 329 318 326 311 282 295 79
352 354 356 358 1 0 359 316 275 135 231 292 311 263 193 204 138 237 280 294 254 254 250 216 279 214 95 41 62 47 341 293 289 293 315 318 304 307 308 324 290 292 312 359
350 352 354 356 360 3 14 340 67 326 340 106 302 265 1 266 204 270 270 223 273 275 260 251 234 242 145 179 135 225 275 298 305 296 305 298 285 289 314 314 305 310 347 29
345 346 350 355 360 17 9 335 333 304 105 276 246 142 192 289 130 310 121 282 312 268 278 360 18 342 8 348 203 339 314 288 292 293 280 272 293 311 313 295 338 341 4 55
339 341 343 349 358 27 11 350 308 280 119 198 255 113 56 20 276 81 14 324 277 96 33 357 12 18 332 312 299 304 294 291 294 287 296 299 297 358 313 34 27 25 12 336
330 333 337 343 353 11 40 334 329 273 223 260 31 84 245 20 8 29 50 348 307 59 308 288 252 265 257 265 284 310 295 291 287 291 296 286 89 40 16 8 29 38 260 351
324 327 331 336 342 350 40 351 352 312 294 353 174 212 252 221 160 224 55 31 31 342 286 277 260 257 214 231 172 253 284 293 307 286 311 81 84 51 30 19 91 251 7 352
318 322 326 330 333 329 88 319 18 298 299 72 14 276 302 284 225 166 184 89 347 317 287 294 263 273 337 304 159 185 246 233 276 307 286 336 60 93 332 305 97 351 0 4
315 317 323 323 326 305 213 264 213 284 277 80 340 343 4 330 302 296 101 8 277 292 268 267 268 281 66 304 295 240 349 307 296 289 275 83 41 12 315 350 35 19 4 11
312 315 323 319 309 275 178 239 217 117 290 86 37 42 359 349 269 315 46 243 197 260 254 266 1 262 18 277 18 342 329 315 321 341 318 344 345 335 4 55 61 10 18 9
309 316 321 308 280 234 179 100 280 217 254 23 236 244 272 314 4 341 282 14 360 2 347 319 252 254 224 34 217 157 330 21 329 19 16 73 46 74 76 53 48 34 20 16
306 312 313 299 254 213 198 165 263 293 274 254 217 209 218 218 233 326 313 86 354 307 326 318 345 316 327 340 279 269 62 32 285 271 107 111 102 91 85 78 70 44 37 40
301 306 307 289 229 203 192 151 220 229 310 285 126 209 241 220 209 201 298 335 333 296 269 273 281 299 305 354 360 286 103 235 311 72 56 119 131 104 104 85 67 53 49 68
296 305 306 277 191 182 188 199 167 244 296 329 74 189 208 211 207 209 218 235 300 276 231 225 249 270 338 255 301 279 23 26 26 16 21 14 132 127 119 84 57 52 73 99
295 309 307 174 157 159 133 169 232 249 214 276 249 103 208 202 192 194 203 219 258 273 289 266 291 39 285 285 263 125 94 63 23 98 71 89 120 122 112 96 68 78 105 120
293 313 174 142 148 146 142 23 190 203 188 251 248 188 169 192 193 201 214 216 251 270 283 246 273 155 204 277 286 127 101 116 116 116 114 114 140 134 123 103 91 108 123 120
293 195 142 141 139 113 66 7 297 170 197 255 265 164 187 185 196 208 213 237 212 212 256 264 246 164 224 269 116 117 142 142 146 127 83 117 132 133 128 114 115 120 135 123
148 123 113 121 128 204 161 101 123 176 237 287 225 259 153 172 219 206 173 238 235 159 240 232 206 235 216 111 156 158 164 167 158 140 124 125 134 139 140 131 142 141 146 125
127 119 99 176 187 220 177 278 205 196 214 244 258 247 263 190 184 199 216 178 255 220 189 137 230 254 111 159 214 159 176 159 162 158 160 148 145 147 160 150 155 151 150 134
126 146 56 16 147 139 210 268 250 205 230 216 232 236 229 207 222 214 216 298 204 243 150 228 205 217 155 173 182 175 171 165 164 156 157 171 169 174 167 152 150 151 146 143
167 142 114 136 195 223 218 206 203 231 239 180 231 214 219 178 222 233 174 245 199 258 133 230 238 115 135 157 185 174 172 166 154 140 137 134 142 156 160 156 151 149 144 137
160 206 166 205 176 32 219 195 209 238 178 236 219 221 211 181 219 215 221 233 229 110 223 222 68 129 141 150 167 166 168 161 148 134 132 133 135 146 152 151 151 148 144 133
239 182 332 219 206 227 226 241 289 238 263 270 236 235 204 215 202 215 212 223 154 231 229 218 140 141 141 148 154 155 157 154 146 138 134 135 139 146 150 151 151 147 142 134
267 265 236 219 243 259 281 296 298 276 258 261 246 241 210 215 207 250 228 195 232 206 221 104 122 138 149 152 153 152 151 148 143 141 139 141 149 151 152 154 153 149 151 131
234 243 263 251 268 279 321 321 311 310 265 247 258 216 243 227 222 226 208 227 229 177 110 125 142 144 152 152 151 151 148 147 145 142 143 148 155 158 159 157 158 160 148 143
208 217 233 268 283 270 299 299 304 292 287 245 225 220 220 264 229 221 297 254 120 127 127 138 155 155 157 152 149 147 144 143 143 141 141 149 159 161 163 165 167 167 175 167
Wind_Speed_850mb
42 44 48 50 50 42 10 5 8 9 2 22 7 6 5 4 9 6 7 12 16 14 6 15 9 8 20 6 10 13 14 12 20 34 13 7 15 9 12 14 22 21 22 10
39 43 45 46 46 47 37 16 10 7 4 10 10 8 6 3 6 3 9 9 4 3 15 10 10 4 14 6 6 18 17 11 19 22 12 8 9 24 20 17 17 29 24 7
40 42 43 41 37 34 27 14 6 5 6 7 17 1 5 7 1 3 10 14 13 14 17 12 13 12 8 7 13 9 5 14 24 23 29 28 21 23 21 16 17 29 20 15
39 40 41 40 33 25 18 7 8 9 3 7 9 8 5 12 6 5 7 9 14 13 15 17 12 6 18 18 9 8 4 22 29 32 34 29 32 24 19 21 31 22 24 29
39 42 41 39 32 17 10 15 12 5 2 7 13 7 4 11 6 10 4 11 4 12 8 13 16 10 11 10 10 17 16 23 28 34 34 34 23 21 18 19 21 27 19 13
39 41 40 35 29 18 9 13 9 10 10 10 14 6 5 2 7 5 9 13 9 13 18 15 11 8 6 12 16 20 20 21 23 31 33 26 19 14 11 18 22 22 18 11
39 39 36 30 24 14 10 12 9 15 4 12 9 5 4 2 6 6 6 13 15 11 8 12 13 17 12 13 4 10 18 19 19 19 23 21 12 16 18 13 11 10 20 15
37 35 30 24 18 9 2 10 6 11 7 9 11 9 3 8 7 3 7 12 8 7 15 15 18 18 18 23 12 3 8 18 12 6 11 4 6 10 10 10 8 10 18 21
35 31 27 21 15 7 4 7 3 6 18 13 11 12 5 15 10 12 8 3 6 10 22 12 14 16 15 9 10 9 13 13 10 14 10 6 6 5 3 18 5 20 23 25
30 28 23 19 12 6 5 5 3 2 16 10 5 7 14 7 10 11 3 5 12 7 15 18 16 12 6 8 7 8 3 8 10 5 7 11 5 14 11 9 7 16 21 26
26 25 20 16 10 5 10 6 5 3 11 10 2 5 7 5 8 11 11 10 10 13 10 8 5 9 1 8 11 10 10 7 7 9 6 4 13 5 11 6 6 15 19 19
23 23 20 13 8 6 10 6 6 6 8 11 4 5 4 2 8 14 2 6 5 17 7 6 5 7 8 5 3 2 3 11 9 8 7 7 12 16 11 9 14 15 15 15
20 20 19 10 8 9 16 11 4 2 9 17 12 12 8 2 1 4 14 10 10 2 11 19 9 6 10 6 3 11 7 5 9 6 4 9 10 12 13 14 14 13 12 12
18 18 19 8 8 11 16 17 2 1 6 12 11 6 12 11 6 5 3 7 8 11 13 20 11 8 0 3 3 12 7 12 10 12 10 10 9 12 11 13 13 12 13 11
16 17 19 5 11 13 17 18 4 4 6 12 8 3 10 6 12 13 8 3 7 14 11 12 10 14 8 17 6 10 7 13 8 3 12 13 14 12 10 9 10 9 9 12
14 16 12 6 17 18 21 7 5 7 3 9 5 5 7 10 13 15 12 8 8 10 9 9 9 3 8 7 5 11 12 11 9 12 12 18 20 15 11 10 9 9 11 14
12 13 6 19 25 29 3 5 7 15 7 8 8 10 10 13 16 17 15 10 11 10 10 9 19 8 11 12 12 16 12 11 16 20 22 18 14 15 12 11 12 14 15 14
9 5 17 23 28 19 8 10 1 19 7 8 8 4 9 21 18 18 16 13 12 13 13 4 15 16 11 7 17 13 13 18 18 9 7 16 18 18 14 11 12 13 16 13
9 28 26 21 12 6 10 6 8 15 3 10 9 10 7 17 22 17 11 11 10 11 13 16 5 10 9 1 17 17 19 21 17 15 15 17 15 14 11 8 10 13 18 12
38 29 4 5 9 6 6 3 7 10 13 11 16 16 5 16 18 16 10 13 11 9 15 7 9 18 19 8 2 20 23 17 21 18 14 10 9 8 7 6 9 16 18 11
9 5 4 2 14 10 7 3 7 11 8 15 22 26 17 16 14 15 13 3 7 7 8 7 11 10 21 18 17 18 21 22 16 10 7 5 6 7 10 10 16 21 16 11
8 7 11 11 7 6 7 8 10 10 9 11 17 23 28 12 13 11 6 8 7 9 13 7 8 14 23 19 24 23 24 23 17 15 12 9 10 12 13 18 22 22 16 10
8 3 8 4 7 2 10 14 7 7 14 9 11 12 27 7 20 8 7 8 11 7 9 9 5 23 19 20 24 29 26 22 21 18 16 14 15 15 19 24 26 21 14 10
2 5 1 8 9 9 11 11 10 4 3 11 14 20 22 22 20 13 10 12 4 11 12 15 20 27 23 26 30 33 30 24 20 18 16 15 15 19 25 28 25 19 14 10
1 4 7 12 18 12 10 13 17 12 12 20 17 23 26 10 5 8 10 9 12 13 11 17 29 29 28 32 33 31 28 23 19 18 16 15 19 24 29 28 23 17 13 10
2 7 9 13 14 21 13 17 22 18 18 20 20 6 7 15 8 11 14 11 12 10 19 26 28 33 32 34 32 29 24 21 19 17 17 18 22 26 30 27 21 16 11 8
10 11 18 19 17 20 19 14 8 10 13 16 11 10 13 10 10 11 7 17 4 25 15 18 27 36 36 35 32 28 25 22 20 19 19 20 23 28 29 27 21 14 9 3
Wind_Direction_850mb
356 357 359 359 359 8 39 316 269 7 285 248 261 308 57 359 291 269 264 279 293 298 9 291 297 349 53 48 350 333 51 305 297 307 32 292 289 302 352 323 315 320 290 308
355 357 358 0 1 3 5 331 313 328 249 272 207 88 168 296 293 16 305 274 270 310 287 294 248 25 63 30 19 14 12 321 313 311 164 356 299 329 318 326 311 282 295 79
352 354 356 358 1 0 359 316 275 135 231 292 311 263 193 204 138 237 280 294 254 254 250 216 279 214 95 41 62 47 341 293 289 293 315 318 304 307 308 324 290 292 312 359
350 352 354 356 360 3 14 340 67 326 340 106 302 265 1 266 204 270 270 223 273 275 260 251 234 242 145 179 135 225 275 298 305 296 305 298 285 289 314 314 305 310 347 29
345 346 350 355 360 17 9 335 333 304 105 276 246 142 192 289 130 310 121 282 312 268 278 360 18 342 8 348 203 339 314 288 292 293 280 272 293 311 313 295 338 341 4 55
339 341 343 349 358 27 11 350 308 280 119 198 255 113 56 20 276 81 14 324 277 96 33 357 12 18 332 312 299 304 294 291 294 287 296 299 297 358 313 34 27 25 12 336
330 333 337 343 353 11 40 334 329 273 223 260 31 84 245 20 8 29 50 348 307 59 308 288 252 265 257 265 284 310 295 291 287 291 296 286 89 40 16 8 29 38 260 351
324 327 331 336 342 350 40 351 352 312 294 353 174 212 252 221 160 224 55 31 31 342 286 277 260 257 214 231 172 253 284 293 307 286 311 81 84 51 30 19 91 251 7 352
318 322 326 330 333 329 88 319 18 298 299 72 14 276 302 284 225 166 184 89 347 317 287 294 263 273 337 304 159 185 246 233 276 307 286 336 60 93 332 305 97 351 0 4
315 317 323 323 326 305 213 264 213 284 277 80 340 343 4 330 302 296 101 8 277 292 268 267 268 281 66 304 295 240 349 307 296 289 275 83 41 12 315 350 35 19 4 11
312 315 323 319 309 275 178 239 217 117 290 86 37 42 359 349 269 315 46 243 197 260 254 266 1 262 18 277 18 342 329 315 321 341 318 344 345 335 4 55 61 10 18 9
309 316 321 308 280 234 179 100 280 217 254 23 236 244 272 314 4 341 282 14 360 2 347 319 252 254 224 34 217 157 330 21 329 19 16 73 46 74 76 53 48 34 20 16
306 312 313 299 254 213 198 165 263 293 274 254 217 209 218 218 233 326 313 86 354 307 326 318 345 316 327 340 279 269 62 32 285 271 107 111 102 91 85 78 70 44 37 40
301 306 307 289 229 203 192 151 220 229 310 285 126 209 241 220 209 201 298 335 333 296 269 273 281 299 305 354 360 286 103 235 311 72 56 119 131 104 104 85 67 53 49 68
296 305 306 277 191 182 188 199 167 244 296 329 74 189 208 211 207 209 218 235 300 276 231 225 249 270 338 255 301 279 23 26 26 16 21 14 132 127 119 84 57 52 73 99
295 309 307 174 157 159 133 169 232 249 214 276 249 103 208 202 192 194 203 219 258 273 289 266 291 39 285 285 263 125 94 63 23 98 71 89 120 122 112 96 68 78 105 120
293 313 174 142 148 146 142 23 190 203 188 251 248 188 169 192 193 201 214 216 251 270 283 246 273 155 204 277 286 127 101 116 116 116 114 114 140 134 123 103 91 108 123 120
293 195 142 141 139 113 66 7 297 170 197 255 265 164 187 185 196 208 213 237 212 212 256 264 246 164 224 269 116 117 142 142 146 127 83 117 132 133 128 114 115 120 135 123
148 123 113 121 128 204 161 101 123 176 237 287 225 259 153 172 219 206 173 238 235 159 240 232 206 235 216 111 156 158 164 167 158 140 124 125 134 139 140 131 142 141 146 125
127 119 99 176 187 220 177 278 205 196 214 244 258 247 263 190 184 199 216 178 255 220 189 137 230 254 111 159 214 159 176 159 162 158 160 148 145 147 160 150 155 151 150 134
126 146 56 16 147 139 210 268 250 205 230 216 232 236 229 207 222 214 216 298 204 243 150 228 205 217 155 173 182 175 171 165 164 156 157 171 169 174 167 152 150 151 146 143
167 142 114 136 195 223 218 206 203 231 239 180 231 214 219 178 222 233 174 245 199 258 133 230 238 115 135 157 185 174 172 166 154 140 137 134 142 156 160 156 151 149 144 137
160 206 166 205 176 32 219 195 209 238 178 236 219 221 211 181 219 215 221 233 229 110 223 222 68 129 141 150 167 166 168 161 148 134 132 133 135 146 152 151 151 148 144 133
239 182 332 219 206 227 226 241 289 238 263 270 236 235 204 215 202 215 212 223 154 231 229 218 140 141 141 148 154 155 157 154 146 138 134 135 139 146 150 151 151 147 142 134
267 265 236 219 243 259 281 296 298 276 258 261 246 241 210 215 207 250 228 195 232 206 221 104 122 138 149 152 153 152 151 148 143 141 139 141 149 151 152 154 153 149 151 131
234 243 263 251 268 279 321 321 311 310 265 247 258 216 243 227 222 226 208 227 229 177 110 125 142 144 152 152 151 151 148 147 145 142 143 148 155 158 159 157 158 160 148 143
208 217 233 268 283 270 299 299 304 292 287 245 225 220 220 264 229 221 297 254 120 127 127 138 155 155 157 152 149 147 144 143 143 141 141 149 159 161 163 165 167 167 175 167